Location: Eaton
(41.3139°N, 82.0207°W)
Time: 16:57:25
(UTC+00:00)

Cosmos 2173 Rocket - Pass Details

Date: 17 June 2021
Orbit: 945 x 1000 km, 83.0° (Epoch: 01 August)

Event Time Altitude Azimuth Distance (km) Brightness Sun altitude
Rises 03:15:09 0° 350° (N) 3,728 8.3 -18.2°
Reaches altitude 10° 03:17:42 10° 348° (NNW) 2,778 7.5 -18.5°
Maximum altitude 03:24:03 70° 266° (W) 1,059 4.2 -19.1°
Enters shadow 03:27:58 25° 188° (S) 1,912 5.1 -19.5°
